Hourly Data Report for September 13, 2017

All times are specified in Local Standard Time (LST). Add 1 hour to adjust for Daylight Saving Time where and when it is observed.

HALL BEACH A
NUNAVUT

68°46'33.000" N
81°14'33.000" W
9.10 m
2402354
71293
YUX

Download Data

Hourly Data (September 2017)
Hourly Data Report for September 13, 2017
Temp Definition
°C
Dew Point Temp Definition
°C
Rel Hum Definition
%
Wind Dir Definition
10's deg

Wind Spd Definition
km/h
Visibility Definition
km
Stn Press Definition
kPa
Hmdx Definition


Wind Chill Definition


Weather Definition


TIME
00:00 Legend Double Dagger 0.6 -1.8 84 4 30 16.1 101.08     LegendNANA
01:00 Legend Double Dagger 0.3 -2.1 84 3 30 16.1 101.09     LegendNANA
02:00 Legend Double Dagger 0.2 -2.2 84 3 28 16.1 101.12     LegendNANA
03:00 Legend Double Dagger 0.1 -2.3 84 3 28 16.1 101.14     LegendNANA
04:00 Legend Double Dagger -0.1 -2.3 85 3 30 16.1 101.18   -7 LegendNANA
05:00 Legend Double Dagger -0.1 -2.3 85 3 28 16.1 101.22   -6 LegendNANA
06:00 Legend Double Dagger -0.1 -2.0 87 3 26 16.1 101.25   -6 LegendNANA
07:00 Legend Double Dagger 0.2 -1.9 86 3 28 16.1 101.29     LegendNANA
08:00 Legend Double Dagger 0.6 -1.5 86 3 24 16.1 101.32     LegendNANA
09:00 Legend Double Dagger 1.0 -1.2 85 3 24 16.1 101.33     LegendNANA
10:00 Legend Double Dagger 1.2 -1.2 84 3 24 16.1 101.34     LegendNANA
11:00 Legend Double Dagger 1.3 -1.6 81 2 21 16.1 101.35     LegendNANA
12:00 Legend Double Dagger 1.8 -2.0 76 2 26 16.1 101.35     LegendNANA
13:00 Legend Double Dagger 1.8 -1.5 79 2 22 16.1 101.35     LegendNANA
14:00 Legend Double Dagger 2.0 -1.6 77 2 22 16.1 101.39     LegendNANA
15:00 Legend Double Dagger 2.0 -1.3 79 2 21 16.1 101.40     LegendNANA
16:00 Legend Double Dagger 1.9 -1.8 76 1 18 16.1 101.42     LegendNANA
17:00 Legend Double Dagger 1.8 -1.6 78 1 17 16.1 101.43     LegendNANA
18:00 Legend Double Dagger 1.4 -1.7 80 1 18 16.1 101.45     LegendNANA
19:00 Legend Double Dagger 0.8 -1.6 84 1 17 16.1 101.46     LegendNANA
20:00 Legend Double Dagger 0.3 -1.5 88 2 15 16.1 101.48     LegendNANA
21:00 Legend Double Dagger 0.0 -1.3 91 1 13 16.1 101.47   -4 LegendNANA
22:00 Legend Double Dagger -0.2 -1.3 92 36 15 16.1 101.44   -5 LegendNANA
23:00 Legend Double Dagger -0.4 -1.4 93 1 13 16.1 101.45   -5 LegendNANA

Notes on Data Quality.

Legend

  • E = Estimated
  • M = Missing
  • NA = Not Available
  • ‡ = Partner data that is not subject to review by the National Climate Archives
Date modified: